Location: Montreal
(45.5087°N, 73.5540°W)
Time: 15:17:10
(UTC-05:00)

Envisat - Visible Passes

Search period start: 31 January 2023 00:00
Search period end: 10 February 2023 00:00
Orbit: 763 x 765 km, 98.2° (Epoch: 31 January)

Date Brightness Start Highest point End Pass type
(mag) Time Alt. Az. Time Alt. Az. Time Alt. Az.
31 Jan 5.0 04:17:26 10° N 04:18:51 19° N 04:18:51 19° N visible
31 Jan 5.0 05:58:45 10° NNW 05:59:02 11° NW 05:59:02 11° NW visible
01 Feb 5.4 03:40:31 10° NNE 03:41:30 16° NNE 03:41:30 16° NNE visible
01 Feb 4.7 05:20:09 10° N 05:21:42 17° NNW 05:21:42 17° NNW visible
02 Feb 6.0 03:04:08 10° NE 03:04:10 10° NE 03:04:10 10° NE visible
02 Feb 4.6 04:42:33 10° N 04:44:22 21° N 04:44:22 21° N visible
03 Feb 4.9 04:05:21 10° NNE 04:07:01 21° NNE 04:07:01 21° NNE visible
03 Feb 4.8 05:45:57 10° NNW 05:47:13 13° NW 05:47:13 13° NW visible
04 Feb 5.5 03:28:34 10° NNE 03:29:41 16° NE 03:29:41 16° NE visible
04 Feb 4.5 05:07:50 10° N 05:09:53 21° NNW 05:09:53 21° NNW visible
05 Feb 4.5 04:30:22 10° N 04:32:33 25° N 04:32:33 25° N visible
06 Feb 4.9 03:53:18 10° NNE 03:55:13 23° NNE 03:55:13 23° NNE visible
06 Feb 4.6 05:33:25 10° NNW 05:35:25 17° NW 05:35:25 17° NW visible
07 Feb 5.5 03:16:41 10° NNE 03:17:54 16° NE 03:17:54 16° NE visible
07 Feb 4.3 04:55:34 10° N 04:58:05 25° NNW 04:58:05 25° NNW visible
08 Feb 4.3 04:18:14 10° N 04:20:46 30° N 04:20:46 30° N visible
08 Feb 4.9 05:59:42 10° NW 06:00:57 12° NW 06:00:57 12° NW visible
09 Feb 4.9 03:41:18 10° NNE 03:43:26 24° NE 03:43:26 24° NE visible
09 Feb 4.4 05:21:00 10° NNW 05:23:38 21° NW 05:23:38 21° NW visible
